Regional Weather Roundup
Issued by NWS

Home | Current Version | Previous Version | Graphics & Text | Print | Product List | Glossary On
Versions: 1 2 3 4 5 6 7 8 9 10 11 12 13 14 15 16 17 18 19 20 21 22 23 24 25 26 27 28 29 30 31 32 33 34 35 36 37 38 39 40 41 42 43 44 45 46 47 48 49 50
000
ASUS43 KLMK 272302
RWRKY
KENTUCKY REGIONAL WEATHER ROUNDUP
NATIONAL WEATHER SERVICE LOUISVILLE KY
700 PM EDT FRI MAR 27 2015

NOTE "FAIR" INDICATES FEW OR NO CLOUDS BELOW 12,000 FEET
WITH NO SIGNIFICANT WEATHER AND/OR OBSTRUCTIONS TO VISIBILITY.

KYZ001>023-026-027-061>063-070>075-280000-
WESTERN AND SOUTH CENTRAL KENTUCKY

CITY           SKY/WX    TMP DP  RH WIND       PRES   REMARKS
PADUCAH        CLOUDY    40  22  48 NW10      30.12S WCI  33
HENDERSON      CLOUDY    37  18  44 NW15      30.11R WCI  28
OWENSBORO      PTSUNNY   39  19  45 NW15      30.09S WCI  30
HOPKINSVILLE   CLOUDY    38  29  69 N12G21    30.08R WCI  30
BOWLING GREEN  CLOUDY    40  25  55 N10G20    30.06R WCI  33
GLASGOW        NOT AVBL
$$

KYZ024-025-028>034-038-045-046-053-280000-
NORTH CENTRAL KENTUCKY

CITY           SKY/WX    TMP DP  RH WIND       PRES   REMARKS
LOUISVILLE/SDF CLOUDY    37  23  56 N10       30.06R WCI  30
LOUISVILLE/LOU CLOUDY    36  22  56 N8        30.06R WCI  30
FORT KNOX      PTSUNNY   36  23  58 NW9       30.03R WCI  29
$$

KYZ035>037-039>044-047>052-055>060-089>105-280000-
NORTHEAST KENTUCKY

CITY           SKY/WX    TMP DP  RH WIND       PRES   REMARKS
LEXINGTON      CLOUDY    34  23  64 N15G23    30.01R WCI  24
COVINGTON      CLOUDY    32  16  51 NW13      30.03R WCI  22
FRANKFORT      CLOUDY    34  23  64 N10       30.02R WCI  26
$$

KYZ054-064>069-076>088-106>120-280000-
SOUTHEAST KENTUCKY

CITY           SKY/WX    TMP DP  RH WIND       PRES   REMARKS
JACKSON        CLOUDY    36  22  56 VRB7G16   29.94R WCI  30
LONDON         CLOUDY    39  24  55 N16       29.96R WCI  30
SOMERSET       NOT AVBL
MIDDLESBORO    DRIZZLE   41  29  63 N14       29.94R
MONTICELLO     CLOUDY    39  29  68 NW12      30.02R WCI  32
$$



USA.gov is the U.S. government's official web portal to all federal, state and local government web resources and services.